| time (UTC) | temp F | wind direction | speed knots | gust knots | rain 1hr in | rain 24hr in | rain mn in | humidity % | barometer mb |
| 20260504173414 | 61 | 281 | 4.3 | 5.2 | 0.00 | 0.00 | 0.00 | 80 | 1016.5 |
| 20260504172414 | 61 | 287 | 2.6 | 5.2 | 0.00 | 0.00 | 0.00 | 80 | 1016.4 |
| 20260504171414 | 61 | 282 | 4.3 | 4.3 | 0.00 | 0.00 | 0.00 | 80 | 1016.5 |
| 20260504170414 | 61 | 284 | 2.6 | 4.3 | 0.00 | 0.00 | 0.00 | 81 | 1016.3 |
| 20260504160414 | 62 | 312 | 2.6 | 2.6 | 0.00 | 0.00 | 0.00 | 82 | 1016.8 |
| 20260504150413 | 63 | 284 | 2.6 | 4.3 | 0.00 | 0.00 | 0.00 | 81 | 1016.7 |
| 20260504140413 | 64 | 272 | 6.1 | 7.8 | 0.00 | 0.00 | 0.00 | 80 | 1017.0 |
| 20260504110412 | 65 | 11 | 2.6 | 4.3 | 0.00 | 0.00 | 0.00 | 77 | 1016.6 |
| 20260504100414 | 66 | 12 | 7.0 | 10.4 | 0.00 | 0.00 | 0.00 | 73 | 1016.4 |
| 20260504081410 | 68 | 30 | 5.2 | 10.4 | 0.00 | 0.00 | 0.00 | 69 | 1015.9 |
| 20260504080411 | 68 | 16 | 7.0 | 10.4 | 0.00 | 0.00 | 0.00 | 70 | 1015.8 |
| 20260504070410 | 68 | 28 | 5.2 | 6.1 | 0.00 | 0.00 | 0.00 | 71 | 1015.6 |
| 20260504045409 | 69 | 9 | 4.3 | 4.3 | 0.00 | 0.00 | 0.00 | 70 | 1015.3 |
| 20260504044409 | 69 | 16 | 6.1 | 7.8 | 0.00 | 0.00 | 0.00 | 70 | 1015.4 |
| 20260504043339 | 69 | 17 | 5.2 | 8.7 | 0.00 | 0.00 | 0.00 | 70 | 1015.5 |
| 20260504042339 | 69 | 15 | 6.1 | 7.0 | 0.00 | 0.00 | 0.00 | 71 | 1015.6 |
| 20260504041339 | 69 | 18 | 2.6 | 6.1 | 0.00 | 0.00 | 0.00 | 71 | 1015.6 |
| 20260504040339 | 69 | 7 | 2.6 | 6.1 | 0.00 | 0.00 | 0.00 | 72 | 1015.6 |
| 20260504035339 | 69 | 12 | 0.9 | 4.3 | 0.00 | 0.00 | 0.00 | 73 | 1015.7 |
| 20260504034339 | 69 | 43 | 2.6 | 4.3 | 0.00 | 0.00 | 0.00 | 73 | 1015.7 |
| 20260504033339 | 69 | 14 | 2.6 | 4.3 | 0.00 | 0.00 | 0.00 | 73 | 1016.0 |
| 20260504032341 | 69 | 12 | 1.7 | 2.6 | 0.00 | 0.00 | 0.00 | 74 | 1016.1 |
| 20260504031339 | 68 | 29 | 2.6 | 2.6 | 0.00 | 0.00 | 0.00 | 75 | 1016.0 |
| 20260504030339 | 68 | 23 | 1.7 | 1.7 | 0.00 | 0.00 | 0.00 | 74 | 1016.4 |
| 20260504025339 | 68 | 318 | 2.6 | 4.3 | 0.00 | 0.00 | 0.00 | 73 | 1016.8 |
| 20260504024339 | 68 | 351 | 1.7 | 2.6 | 0.00 | 0.00 | 0.00 | 73 | 1016.7 |
| 20260504023339 | 68 | 349 | 1.7 | 2.6 | 0.00 | 0.00 | 0.00 | 73 | 1016.9 |
| 20260504022339 | 68 | 329 | 2.6 | 2.6 | 0.00 | 0.00 | 0.00 | 73 | 1017.1 |
| 20260504021338 | 69 | 283 | 0.9 | 1.7 | 0.00 | 0.00 | 0.00 | 72 | 1017.4 |
| 20260504020338 | 69 | 290 | 1.7 | 1.7 | 0.00 | 0.00 | 0.00 | 71 | 1017.5 |
| 20260504015338 | 69 | 318 | 0.9 | 2.6 | 0.00 | 0.00 | 0.00 | 68 | 1017.7 |
| 20260504014338 | 70 | 318 | 2.6 | 2.6 | 0.00 | 0.00 | 0.00 | 67 | 1017.8 |
| 20260504013338 | 70 | 275 | 2.6 | 4.3 | 0.00 | 0.00 | 0.00 | 65 | 1018.0 |
| 20260504012338 | 71 | 351 | 1.7 | 4.3 | 0.00 | 0.00 | 0.00 | 62 | 1018.1 |
| 20260504011338 | 71 | 348 | 1.7 | 4.3 | 0.00 | 0.00 | 0.00 | 61 | 1018.1 |
| 20260504010338 | 71 | 3 | 5.2 | 5.2 | 0.00 | 0.00 | 0.00 | 61 | 1018.1 |
| 20260504005338 | 71 | 13 | 2.6 | 5.2 | 0.00 | 0.00 | 0.00 | 60 | 1018.0 |
| 20260504004338 | 72 | 22 | 2.6 | 6.1 | 0.00 | 0.00 | 0.00 | 62 | 1017.9 |
| 20260504003338 | 72 | 43 | 5.2 | 6.1 | 0.00 | 0.00 | 0.00 | 62 | 1017.9 |
| 20260504002338 | 72 | 18 | 4.3 | 5.2 | 0.00 | 0.00 | 0.00 | 62 | 1018.1 |
| 20260504001338 | 71 | 16 | 1.7 | 2.6 | 0.00 | 0.00 | 0.00 | 62 | 1017.9 |
| 20260504000337 | 71 | 29 | 2.6 | 4.3 | 0.00 | 0.00 | 0.00 | 62 | 1017.8 |
| 20260503235338 | 71 | 16 | 2.6 | 2.6 | 0.00 | 0.00 | 0.00 | 64 | 1017.9 |
| 20260503234338 | 70 | 31 | 2.6 | 2.6 | 0.00 | 0.00 | 0.00 | 65 | 1018.0 |
| 20260503233337 | 70 | 28 | 1.7 | 2.6 | 0.00 | 0.00 | 0.00 | 64 | 1018.2 |
| 20260503232338 | 70 | 37 | 0.9 | 1.7 | 0.00 | 0.00 | 0.00 | 65 | 1018.2 |
| 20260503231337 | 69 | 327 | 1.7 | 2.6 | 0.00 | 0.00 | 0.00 | 65 | 1018.1 |
| 20260503230337 | 69 | 14 | 0.9 | 2.6 | 0.00 | 0.00 | 0.00 | 65 | 1018.1 |
| 20260503225337 | 69 | 350 | 2.6 | 4.3 | 0.00 | 0.00 | 0.00 | 64 | 1017.9 |
| 20260503224337 | 69 | 354 | 2.6 | 5.2 | 0.00 | 0.00 | 0.00 | 65 | 1017.8 |
| 20260503223337 | 69 | 341 | 0.9 | 2.6 | 0.00 | 0.00 | 0.00 | 65 | 1017.8 |
| 20260503222337 | 69 | 12 | 2.6 | 2.6 | 0.00 | 0.00 | 0.00 | 66 | 1017.8 |
| 20260503221337 | 68 | 22 | 2.6 | 4.3 | 0.00 | 0.00 | 0.00 | 66 | 1017.7 |
| 20260503220337 | 69 | 3 | 2.6 | 4.3 | 0.00 | 0.00 | 0.00 | 66 | 1017.7 |
| 20260503215337 | 69 | 9 | 2.6 | 4.3 | 0.00 | 0.00 | 0.00 | 66 | 1017.7 |
| 20260503214337 | 69 | 24 | 2.6 | 2.6 | 0.00 | 0.00 | 0.00 | 66 | 1017.5 |
| 20260503213336 | 68 | 24 | 2.6 | 2.6 | 0.00 | 0.00 | 0.00 | 66 | 1017.3 |
| 20260503212337 | 68 | 357 | 2.6 | 4.3 | 0.00 | 0.00 | 0.00 | 67 | 1017.5 |
| 20260503211336 | 67 | 357 | 1.7 | 2.6 | 0.00 | 0.00 | 0.00 | 68 | 1017.5 |
| 20260503210336 | 67 | 12 | 4.3 | 5.2 | 0.00 | 0.00 | 0.00 | 68 | 1017.3 |
| 20260503205336 | 66 | 7 | 1.7 | 5.2 | 0.00 | 0.00 | 0.00 | 69 | 1017.3 |
| 20260503204336 | 66 | 352 | 1.7 | 2.6 | 0.00 | 0.00 | 0.00 | 69 | 1017.1 |
| 20260503203336 | 66 | 359 | 2.6 | 5.2 | 0.00 | 0.00 | 0.00 | 68 | 1017.1 |
| 20260503202337 | 66 | 7 | 2.6 | 2.6 | 0.00 | 0.00 | 0.00 | 68 | 1017.0 |
| 20260503201336 | 66 | 11 | 1.7 | 2.6 | 0.00 | 0.00 | 0.00 | 69 | 1016.8 |
| 20260503200336 | 66 | 7 | 1.7 | 2.6 | 0.00 | 0.00 | 0.00 | 69 | 1016.6 |
| 20260503195336 | 66 | 356 | 1.7 | 2.6 | 0.00 | 0.00 | 0.00 | 69 | 1016.5 |
| 20260503194336 | 66 | 352 | 1.7 | 2.6 | 0.00 | 0.00 | 0.00 | 70 | 1016.5 |
| 20260503193336 | 66 | 356 | 1.7 | 5.2 | 0.00 | 0.00 | 0.00 | 71 | 1016.4 |
| 20260503192336 | 65 | 337 | 1.7 | 2.6 | 0.00 | 0.00 | 0.00 | 72 | 1016.4 |
| 20260503191335 | 65 | 14 | 1.7 | 4.3 | 0.00 | 0.00 | 0.00 | 74 | 1016.4 |
| 20260503190335 | 64 | 356 | 1.7 | 5.2 | 0.00 | 0.00 | 0.00 | 76 | 1016.3 |
| 20260503185337 | 64 | 359 | 0.9 | 2.6 | 0.00 | 0.00 | 0.00 | 78 | 1016.5 |
| 20260503184335 | 63 | 348 | 2.6 | 2.6 | 0.00 | 0.00 | 0.00 | 81 | 1016.5 |
| 20260503183335 | 62 | 31 | 2.6 | 2.6 | 0.00 | 0.00 | 0.00 | 82 | 1016.5 |
| 20260503182335 | 61 | 5 | 2.6 | 5.2 | 0.00 | 0.00 | 0.00 | 82 | 1016.4 |
| 20260503181335 | 61 | 4 | 0.9 | 1.7 | 0.00 | 0.00 | 0.00 | 82 | 1016.5 |
| 20260503180335 | 61 | 4 | 0.0 | 0.0 | 0.00 | 0.00 | 0.00 | 82 | 1016.4 |
| 20260503175335 | 61 | 4 | 0.0 | 1.7 | 0.00 | 0.00 | 0.00 | 82 | 1016.5 |
| 20260503174335 | 61 | 4 | 2.6 | 4.3 | 0.00 | 0.00 | 0.00 | 82 | 1016.5 |